sat.trackr.live / text

‹ back to catalog

STARLINK-36701

NORAD 67658 · 2026-022L

PAYLOAD ACTIVE UNKNOWN

§ Identity

Operator
Country
US
Launch date
2026-02-02
Launch site
AFWTR
Launch vehicle
Mass (kg)
RCS (m²)

Purposes: comms

External: N2YO · Heavens-Above · Gunter

§ Orbital elements

Epoch: 2026-09-19T16:54:38.512224Z

Period
93.91 min
Inclination
97.2852°
Eccentricity
0.0000676
Mean motion
15.33451508 rev/d
Perigee alt
465.1 km
Apogee alt
466.0 km
Semi-major
6,843.7 km
B*
3.8821e-4
RAAN
294.2535°
Arg perigee
89.2049°
Mean anomaly
270.9271°
Rev number
3,530

§ Raw data

STARLINK-367011 67658U 26022L   26262.70461241  .00012481  00000+0  38821-3 0  99972 67658  97.2852 294.2535 0000676  89.2049 270.9271 15.33451508 35302

JSON: /api/v1/satellites/67658 · /tle

For live sub-satellite position, see the globe view (requires WebGL).

§ Visibility from observer

Set your observer location to see the next 7 days of passes ≥ 10°. The values pass through the URL so the page stays shareable.

No JS? Fill the form by hand. The geolocation button needs JavaScript.